COSMOS 1091

Satellite information

Favourite Embed

Satellite Type and Status

PAYLOADIN ORBIT

Key statistics

Satellite COSMOS 1091 at a glance.

Uptime

16833

Days in orbit

Revolutions

≈ 13.7

Per day

Orbit

LEO

Low Earth Orbit

Inclination

82.9

Latest

Satellite identification and parameters

Extended collection of information and parameters for COSMOS 1091.

Object identification

Identified? True

Debris? False

Object name: COSMOS 1091

International designator: 1979-028A

Object number (NORAD): 11320

Object ID (CCSDS): 11320

Country: COMMONWEALTH OF INDEPENDENT STATES (CIS)

Current information (Y/N): Y

RCS size: LARGE

Orbital parameters

Period: 104.737 minutes

Inclination: 82.9228 deg

SMA: 7360.252 km

Apoapsis: 1003.916 km

Periapsis: 960.317 km

RAAN: 74.3491 deg

Eccentricy: 0.0029618

Argument of periapsis: 211.5862 deg

Mean anomaly: 204.561 deg

Mean motion: 13.74876704 rev/day

Mean motion (dot): 0.00000069 rev/day2

B* drag term: 0.000056453 1/REarth

Two-line elements (TLE)

Creation date: May 8, 2025, 3:01 a.m.

Reference frame: TEME

Reference center: EARTH

Epoch: May 7, 2025, 8:07 p.m. UTC

TLE line 0: 0 COSMOS 1091

TLE line 1: 1 11320U 79028A 25127.83874311 .00000069 00000-0 56453-4 0 9997

TLE line 2: 2 11320 82.9228 74.3491 0029618 211.5862 204.5610 13.74876704311436

Live tracking on map

Real-time ground track for satellite COSMOS 1091.

In-orbit conjunctions

There are no conjunctions computed for COSMOS 1091, at the moment. Check back to stay up to date, as we update our databases every day.

Go to all conjunctions

Associated space launch

Navigation satellite providing location information for the Tsiklon-B navigation system

COSMOS 1091 was lifted into orbit during the mission ‘Kosmos-3M | Parus 19’, on board a Kosmos-3M space rocket.

The launch took place on April 7, 1979, 6:20 a.m. from 132/1 (132L).

For more information about the launch, click the button.

Launch to space Kosmos-3M | Parus 19
Kosmos-3M | Parus 19

Agency: N/A

Status: Launch Successful

Launch date: April 7, 1979, 6:20 a.m. UTC

Rocket: Kosmos-3M

Launch pad: 132/1 (132L)

Location: Plesetsk Cosmodrome, Russian Federation

...

Latest news about this satellite

There are no fresh news available about this satellite. Check back as we update our databases every day.


Newsletter sign-up

Weekly statistics, charts and insights to help you stay on top of the space industry.